DW8626 Madrid ES current weather conditions

sailwx.info

Wind from 008 at 0 knots gusting 7

Air temperature 22.8° C
Dewpoint 8.5° C

Last reported at 2015-Sep-04 11:47 UTC.
Time now 2015-Sep-04 12:24 UTC

Location: N 40°29' W 003°43'.
View on Google Maps.

See reports from other nearby stations

  
Tides and Currents Weather Stations Pressure Air Temp Water Temp Dewpoint Dewpoint Depression Visibility Wind Speed Wind Dir Waves Ship Positions
date/time (UTC)wind fromknots sea level pressurealtimeterstation pressurevisibilityair tempwater tempwave heightnotes
2015-Sep-04 11:47 008 0 gusting 7 22.8
2015-Sep-04 11:32 009 3 gusting 6 23.3
2015-Sep-04 11:02 074 23.3
2015-Sep-04 10:47 102 1 gusting 9 22.8
2015-Sep-04 10:17 033 21.1
2015-Sep-04 10:02 067 5 gusting 12 21.1
2015-Sep-04 09:47 044 4 gusting 8 20.6
2015-Sep-04 09:32 053 6 gusting 9 20.0
2015-Sep-04 09:17 036 4 gusting 10 20.0
2015-Sep-04 09:02 048 3 gusting 7 18.9
2015-Sep-04 08:47 044 2 gusting 6 18.9
2015-Sep-04 08:32 064 18.3
2015-Sep-04 08:17 023 17.2
2015-Sep-04 08:02 306 17.2
2015-Sep-04 07:47 027 3 gusting 10 17.2
2015-Sep-04 07:17 032 6 gusting 8 16.1
2015-Sep-04 06:47 013 6 gusting 10 16.1
2015-Sep-04 06:32 013 4 gusting 9 16.1
2015-Sep-04 06:17 026 9 gusting 11 16.1
2015-Sep-04 06:02 034 6 gusting 11 16.1
2015-Sep-04 05:47 048 6 gusting 14 16.1
2015-Sep-04 05:32 025 8 gusting 14 16.1
2015-Sep-04 05:17 058 7 gusting 12 16.1
2015-Sep-04 04:47 015 7 gusting 12 16.1
2015-Sep-04 04:32 009 8 gusting 13 16.1
2015-Sep-04 04:17 039 10 gusting 17 16.1
2015-Sep-04 04:02 044 6 gusting 13 16.1
2015-Sep-04 03:47 064 7 gusting 13 16.1
2015-Sep-04 03:32 044 8 gusting 16 16.1
2015-Sep-04 02:47 044 6 gusting 16 16.7
2015-Sep-04 02:17 006 8 gusting 12 16.7
2015-Sep-04 02:02 042 7 gusting 17 16.7
2015-Sep-04 01:32 039 7 gusting 13 17.2
2015-Sep-04 01:17 047 11 gusting 15 17.2
2015-Sep-04 01:02 049 7 gusting 17 17.2
2015-Sep-04 00:47 037 12 gusting 18 17.2
2015-Sep-04 00:32 068 9 gusting 17 17.8
2015-Sep-04 00:02 027 7 gusting 16 17.8
2015-Sep-03 23:47 050 7 gusting 17 18.3
2015-Sep-03 23:17 029 11 gusting 16 18.3
2015-Sep-03 22:47 039 5 gusting 13 18.9
2015-Sep-03 22:17 024 9 gusting 15 19.4
2015-Sep-03 22:02 014 6 gusting 14 19.4
2015-Sep-03 21:47 050 5 gusting 12 20.0
2015-Sep-03 21:32 036 11 gusting 15 20.0
2015-Sep-03 21:17 051 4 gusting 11 21.1
2015-Sep-03 21:02 043 4 gusting 13 21.1
2015-Sep-03 20:47 354 6 gusting 9 21.7
2015-Sep-03 20:32 044 5 gusting 7 22.2
2015-Sep-03 20:17 172 22.2
2015-Sep-03 19:47 304 22.2
2015-Sep-03 19:17 250 22.8
2015-Sep-03 19:02 236 1 gusting 6 23.9
2015-Sep-03 18:47 188 23.9
2015-Sep-03 18:32 169 0 gusting 4 23.9
2015-Sep-03 18:18 155 23.9
2015-Sep-03 17:47 203 0 gusting 5 24.4
2015-Sep-03 17:32 149 0 gusting 5 25.0
2015-Sep-03 17:17 207 1 gusting 6 25.6
2015-Sep-03 17:02 255 25.6
2015-Sep-03 16:47 141 26.1
2015-Sep-03 16:32 163 1 gusting 5 25.6
2015-Sep-03 16:17 153 2 gusting 7 25.6
2015-Sep-03 16:02 169 6 gusting 9 25.6
2015-Sep-03 15:47 132 2 gusting 7 25.6
2015-Sep-03 15:32 160 2 gusting 7 25.6
2015-Sep-03 14:47 271 0 gusting 8 25.0
2015-Sep-03 14:32 188 2 gusting 9 25.0
2015-Sep-03 14:17 212 1 gusting 7 25.0
2015-Sep-03 14:02 157 24.4
2015-Sep-03 13:32 274 0 gusting 11 23.9
2015-Sep-03 13:17 153 6 gusting 10 23.9
2015-Sep-03 13:02 285 0 gusting 11 23.3
2015-Sep-03 12:47 141 3 gusting 8 23.3
2015-Sep-03 12:32 224 23.9
2015-Sep-03 11:32 212 6 gusting 14 22.2
2015-Sep-03 11:02 159 6 gusting 13 21.7
2015-Sep-03 10:47 194 3 gusting 10 22.2
2015-Sep-03 10:17 148 1 gusting 11 21.7
2015-Sep-03 10:02 239 6 gusting 10 21.7
2015-Sep-03 09:32 200 6 gusting 8 20.0
2015-Sep-03 09:17 214 6 gusting 10 20.6
2015-Sep-03 09:02 095 4 gusting 8 20.0
2015-Sep-03 08:47 156 4 gusting 7 19.4
2015-Sep-03 08:32 210 19.4
2015-Sep-03 07:17 162 18.9
2015-Sep-03 06:32 236 17.2
2015-Sep-03 06:02 174 17.2
2015-Sep-03 05:47 197 17.8
2015-Sep-03 05:32 236 17.8
2015-Sep-03 05:17 177 17.8
2015-Sep-03 05:02 201 18.3
2015-Sep-03 04:47 173 18.9
2015-Sep-03 04:32 205 18.9
2015-Sep-03 04:17 200 18.9
2015-Sep-03 04:02 254 18.9
2015-Sep-03 03:47 165 18.9
2015-Sep-03 03:32 212 19.4
2015-Sep-03 03:17 284 19.4
2015-Sep-03 02:47 205 20.0
2015-Sep-03 02:32 240 20.0
2015-Sep-03 02:17 201 20.6
2015-Sep-03 02:02 269 20.6
2015-Sep-03 01:47 264 20.6
2015-Sep-03 01:32 214 20.6
2015-Sep-03 01:02 223 21.1
2015-Sep-03 00:47 228 2 gusting 6 21.7
2015-Sep-03 00:32 229 22.2
2015-Sep-03 00:17 246 22.2
2015-Sep-03 00:02 259 22.8
2015-Sep-02 23:47 276 22.8
2015-Sep-02 23:32 262 22.8
2015-Sep-02 23:17 252 22.8
2015-Sep-02 23:02 293 1 gusting 6 23.3
2015-Sep-02 22:32 256 2 gusting 10 23.9
2015-Sep-02 22:02 269 0 gusting 6 23.9
2015-Sep-02 21:32 249 2 gusting 8 24.4
2015-Sep-02 21:17 255 1 gusting 9 24.4
2015-Sep-02 21:02 256 1 gusting 10 24.4
2015-Sep-02 20:47 264 6 gusting 12 25.0
2015-Sep-02 20:32 242 0 gusting 9 25.0
2015-Sep-02 20:02 250 1 gusting 6 25.6
2015-Sep-02 19:47 217 1 gusting 5 25.6
2015-Sep-02 19:32 243 1 gusting 7 25.6
2015-Sep-02 19:17 231 0 gusting 7 26.1
2015-Sep-02 19:02 256 5 gusting 9 26.1
2015-Sep-02 18:47 249 0 gusting 6 26.7
2015-Sep-02 18:17 188 27.8
2015-Sep-02 17:17 204 4 gusting 9 28.3
2015-Sep-02 16:47 167 2 gusting 11 28.9
2015-Sep-02 16:32 243 0 gusting 11 28.3
2015-Sep-02 16:17 228 6 gusting 11 28.3
2015-Sep-02 16:02 188 4 gusting 12 28.3
2015-Sep-02 15:47 143 4 gusting 10 27.8
2015-Sep-02 15:02 231 28.9
2015-Sep-02 14:17 184 3 gusting 12 28.3
2015-Sep-02 14:02 211 2 gusting 8 27.8
2015-Sep-02 13:47 266 4 gusting 11 27.8
2015-Sep-02 13:32 274 27.8
2015-Sep-02 13:17 226 6 gusting 10 27.8
2015-Sep-02 12:47 233 27.2
2015-Sep-02 12:32 198 0 gusting 4 26.7
2015-Sep-02 12:17 059 0 gusting 4 26.7
2015-Sep-02 12:02 011 26.7